Barranquilla, Colombia

9:27 PM COT on December 04, 2016 (GMT -0500)
Ernesto Cortissoz

Weather History for SKBQ - September, 2013

Change the Weather History Date:

Monday, September 2, 2013

  Actual Average Record
Temperature  
Mean Temperature 80 °F -  
Max Temperature 91 °F 89 °F 100 °F (2003)
Min Temperature 70 °F 75 °F 70 °F (2013)
Cooling Degree Days 16    
Growing Degree Days 30 (Base 50)    
Moisture  
Dew Point 74 °F    
Average Humidity 85    
Maximum Humidity 100    
Minimum Humidity 53    
Precipitation  
Precipitation 0.00 in - - ()
Sea Level Pressure  
Sea Level Pressure 29.86 in    
Wind  
Wind Speed 5 mph ()    
Max Wind Speed 12 mph    
Max Gust Speed -    
Visibility 5.1 miles    
Events Fog , Thunderstorm    
Averages and records for this station are not official NWS values.
T = Trace of Precipitation, MM = Missing Value Source: Averaged Metar Reports

Daily Weather History Graph

Daily Weather History Graph

Search for Another Location

Airport or City:

Trip Planner

Search our weather history database for the weather conditions in past years. The results will help you decide how hot, cold, wet, or windy it might be!

Date:

Astronomy

Sep. 02, 2013 Rise Set
Actual Time 5:49 AM COT 6:07 PM COT
Civil Twilight 5:28 AM COT 6:29 PM COT
Nautical Twilight 5:03 AM COT 6:53 PM COT
Astronomical Twilight 4:38 AM COT 7:18 PM COT
Moon 3:22 AM COT (9/2) 4:06 PM COT (9/2)
Length of Visible Light 13h 01m
Length of Day
12h 18m
Waning Crescent, 8% of the Moon is Illuminated
Sep 2
Waning Crescent
Sep 5
New
Sep 12
First Quarter
Sep 19
Full
Sep 26
Last Quarter

Hourly Weather History & Observations

Time (COT) Temp. Heat Index Dew Point Humidity Pressure Visibility Wind Dir Wind Speed Gust Speed Precip Events Conditions
12:00 AM 73.4 °F - 73.4 °F 100% 29.88 in 5.0 mi SW 4.6 mph - N/A Thunderstorm Thunderstorm
1:00 AM 73 °F - 72 °F 95% 29.86 in 6 mi West 4.5 mph - - Thunderstorm Thunderstorm
1:00 AM 73.4 °F - 71.6 °F 94% 29.85 in 6.2 mi West 4.6 mph - N/A Thunderstorm Thunderstorm
2:00 AM 73.4 °F - 71.6 °F 94% 29.82 in 6.2 mi SSW 4.6 mph - N/A   Overcast
3:00 AM 73.4 °F - 73.4 °F 100% 29.82 in 6.2 mi Calm Calm - N/A   Mostly Cloudy
4:00 AM 74 °F - 73 °F 94% 29.83 in 6 mi Calm Calm - -   Haze
4:00 AM 73.4 °F - 73.4 °F 100% 29.82 in 6.2 mi Calm Calm - N/A   Mostly Cloudy
5:00 AM 73.4 °F - 73.4 °F 100% 29.84 in 1.2 mi South 5.8 mph - N/A Fog Patches of Fog
6:00 AM 73.4 °F - 73.4 °F 100% 29.86 in 1.2 mi SSE 4.6 mph - N/A Fog Patches of Fog
7:00 AM 73 °F - 72 °F 98% 29.89 in 1 mi SSE 6.7 mph - -   Mist
7:00 AM 73.4 °F - 73.4 °F 100% 29.88 in 1.2 mi SSE 5.8 mph - N/A   Overcast
8:00 AM 75.2 °F - 73.4 °F 94% 29.89 in 1.2 mi SSE 6.9 mph - N/A   Overcast
8:40 AM 75.2 °F - 73.4 °F 94% 29.91 in 2.5 mi SSE 8.1 mph - N/A   Overcast
9:00 AM 75.2 °F - 73.4 °F 94% 29.91 in 3.1 mi South 6.9 mph - N/A   Scattered Clouds
9:40 AM 77.0 °F - 73.4 °F 89% 29.91 in 5.0 mi South 5.8 mph - N/A   Scattered Clouds
10:00 AM 78 °F - 74 °F 82% 29.92 in 5 mi South 4.5 mph - -   Haze
10:00 AM 77.0 °F - 73.4 °F 89% 29.91 in 5.0 mi South 5.8 mph - N/A   Scattered Clouds
10:33 AM 78.8 °F - 73.4 °F 83% 29.91 in 6.2 mi South 3.5 mph - N/A   Mostly Cloudy
11:00 AM 82.4 °F 88.2 °F 73.4 °F 74% 29.90 in 6.2 mi SSW 4.6 mph - N/A   Mostly Cloudy
12:00 PM 84.2 °F 90.9 °F 73.4 °F 70% 29.89 in 6.2 mi Variable 2.3 mph - N/A   Mostly Cloudy
1:00 PM 91.4 °F 105.1 °F 77.0 °F 63% 29.88 in 6.2 mi East 4.6 mph - N/A   Scattered Clouds
2:00 PM 95.0 °F 107.4 °F 75.2 °F 53% 29.88 in 6.2 mi East 5.8 mph - N/A   Mostly Cloudy
3:00 PM 80.6 °F 84.6 °F 71.6 °F 74% 29.81 in 6.2 mi NE 4.6 mph - N/A   Scattered Clouds
4:00 PM 80 °F - 74 °F 76% 29.82 in 6 mi South 4.5 mph - -   Haze
4:00 PM 80.6 °F 85.4 °F 73.4 °F 79% 29.81 in 6.2 mi South 4.6 mph - N/A   Scattered Clouds
5:00 PM 80.6 °F 84.6 °F 71.6 °F 74% 29.79 in 6.2 mi NNW 5.8 mph - N/A   Scattered Clouds
6:00 PM 78.8 °F - 71.6 °F 78% 29.82 in 6.2 mi East 9.2 mph - N/A   Scattered Clouds
7:00 PM 82 °F - 75 °F 73% 29.85 in 6 mi NNE 11.2 mph - -   Partly Cloudy
7:00 PM 82.4 °F 89.5 °F 75.2 °F 79% 29.84 in 6.2 mi NNE 11.5 mph - N/A   Scattered Clouds
8:00 PM 82.4 °F 89.5 °F 75.2 °F 79% 29.86 in 6.2 mi NNE 11.5 mph - N/A   Scattered Clouds
9:00 PM 82.4 °F 89.5 °F 75.2 °F 79% 29.88 in 6.2 mi NNE 11.5 mph - N/A   Scattered Clouds
10:00 PM 82.4 °F 89.5 °F 75.2 °F 79% 29.86 in 6.2 mi NNE 6.9 mph - N/A   Scattered Clouds
11:00 PM 82.4 °F 89.5 °F 75.2 °F 79% 29.85 in 6.2 mi NNE 8.1 mph - N/A   Scattered Clouds